Location: *
(51.5000°N, 0.1100°W)
Time: 18:03:39
(UTC+00:00)

Cosmos 2082 Rocket - Pass Details

Date: 25 May 2024
Orbit: 832 x 853 km, 71.0° (Epoch: 16 June)

Event Time Altitude Azimuth Distance (km) Brightness Sun altitude
Exits shadow 01:19:34 18° 231° (SW) 1,957 3.6 -15.3°
Maximum altitude 01:23:44 58° 306° (NW) 989 2.6 -15.1°
Drops below altitude 10° 01:29:23 10° 25° (NNE) 2,492 6.1 -14.7°
Sets 01:31:54 0° 30° (NNE) 3,430 7.2 -14.6°
